Weather History for KIRK - January, 2014

Change the Weather History Date:

Friday, January 24, 2014

  Actual Average Record
Temperature  
Mean Temperature 22 °F 26 °F  
Max Temperature 41 °F 36 °F 70 °F (1950)
Min Temperature 2 °F 17 °F -10 °F (1963)
Degree Days  
Heating Degree Days 43 39  
Month to date heating degree days 887 936  
Since 1 July heating degree days 3378 3279  
Cooling Degree Days 0 0  
Month to date cooling degree days 0 0  
Year to date cooling degree days 0 0  
Moisture  
Dew Point 3 °F    
Average Humidity 52    
Maximum Humidity 75    
Minimum Humidity 29    
Precipitation  
Precipitation 0.00 in 0.05 in 1.04 in (1938)
Month to date precipitation 0.72 0.85  
Year to date precipitation 0.72 0.85  
Sea Level Pressure  
Sea Level Pressure 30.13 in    
Wind  
Wind Speed 16 mph (SW)    
Max Wind Speed 30 mph    
Max Gust Speed 41 mph    
Visibility 10 miles    
Events      
T = Trace of Precipitation, MM = Missing Value Source: NWS Daily Summary

Daily Weather History Graph

Daily Weather History Graph

Search for Another Location

Airport or City:

Trip Planner

Search our weather history database for the weather conditions in past years. The results will help you decide how hot, cold, wet, or windy it might be!

Date:

Astronomy

Jan. 24, 2014 Rise Set
Actual Time 7:25 AM CST 5:19 PM CST
Civil Twilight 6:56 AM CST 5:48 PM CST
Nautical Twilight 6:23 AM CST 6:21 PM CST
Astronomical Twilight 5:51 AM CST 6:53 PM CST
Moon 12:53 AM CST (1/24) 11:38 AM CST (1/24)
Length of Visible Light 10h 52m
Length of Day
9h 54m
Last Quarter, 44% of the Moon is Illuminated
Jan 24
Last Quarter
Jan 30
New
Feb 6
First Quarter
Feb 14
Full
Feb 22
Last Quarter

Hourly Weather History & Observations

Time (CST) Temp. Windchill Dew Point Humidity Pressure Visibility Wind Dir Wind Speed Gust Speed Precip Events Conditions
12:55 AM 3.0 °F -10.5 °F -6.0 °F 66% 30.65 in 10.0 mi SW 8.1 mph - N/A   Clear
1:55 AM 3.9 °F -9.4 °F -5.1 °F 66% 30.62 in 10.0 mi SW 8.1 mph - N/A   Clear
2:55 AM 3.9 °F -12.2 °F -5.1 °F 66% 30.57 in 10.0 mi SSW 11.5 mph - N/A   Clear
3:55 AM 5.0 °F -10.0 °F -5.1 °F 63% 30.52 in 10.0 mi SW 10.4 mph 19.6 mph N/A   Clear
4:55 AM 7.0 °F -9.1 °F -4.0 °F 61% 30.47 in 10.0 mi SW 12.7 mph 20.7 mph N/A   Clear
5:55 AM 8.1 °F -6.2 °F -4.0 °F 58% 30.43 in 10.0 mi SW 10.4 mph - N/A   Clear
6:55 AM 9.0 °F -8.5 °F -4.0 °F 56% 30.39 in 10.0 mi SSW 16.1 mph 24.2 mph N/A   Clear
7:55 AM 12.0 °F -5.1 °F -4.0 °F 49% 30.35 in 10.0 mi SW 17.3 mph 26.5 mph N/A   Clear
8:55 AM 16.0 °F -0.9 °F -2.9 °F 43% 30.31 in 10.0 mi SW 19.6 mph 35.7 mph N/A   Clear
9:55 AM 18.0 °F 0.2 °F -2.0 °F 41% 30.25 in 10.0 mi SW 24.2 mph 34.5 mph N/A   Clear
10:55 AM 21.0 °F 3.3 °F -0.9 °F 38% 30.18 in 10.0 mi SW 27.6 mph 41.4 mph N/A   Clear
11:55 AM 26.1 °F 11.6 °F 1.9 °F 35% 30.11 in 10.0 mi SW 21.9 mph 40.3 mph N/A   Clear
12:55 PM 30.0 °F 16.3 °F 3.0 °F 32% 30.04 in 10.0 mi SW 24.2 mph 39.1 mph N/A   Clear
1:55 PM 30.9 °F 19.4 °F 3.9 °F 32% 29.99 in 10.0 mi WSW 17.3 mph 36.8 mph N/A   Clear
2:55 PM 34.0 °F 24.2 °F 5.0 °F 30% 29.93 in 10.0 mi SW 15.0 mph 32.2 mph N/A   Clear
3:55 PM 35.1 °F 24.8 °F 7.0 °F 31% 29.91 in 10.0 mi WSW 17.3 mph 29.9 mph N/A   Overcast
4:55 PM 35.1 °F 26.9 °F 7.0 °F 31% 29.89 in 10.0 mi SW 11.5 mph 29.9 mph N/A   Overcast
5:55 PM 35.1 °F 26.4 °F 8.1 °F 33% 29.89 in 10.0 mi SW 12.7 mph 25.3 mph N/A   Overcast
6:55 PM 36.0 °F 25.6 °F 9.0 °F 33% 29.85 in 10.0 mi SW 18.4 mph 24.2 mph N/A   Overcast
7:55 PM 36.0 °F 26.0 °F 10.0 °F 34% 29.79 in 10.0 mi SW 17.3 mph 26.5 mph N/A   Overcast
8:55 PM 37.0 °F 27.4 °F 12.0 °F 36% 29.76 in 10.0 mi SW 17.3 mph 25.3 mph N/A   Overcast
9:55 PM 37.9 °F 30.0 °F 12.9 °F 36% 29.73 in 10.0 mi SW 12.7 mph 24.2 mph N/A   Overcast
10:55 PM 39.0 °F 30.6 °F 15.1 °F 38% 29.70 in 10.0 mi WSW 15.0 mph 21.9 mph N/A   Overcast
11:55 PM 39.9 °F 32.9 °F 19.0 °F 43% 29.69 in 10.0 mi WSW 11.5 mph - N/A   Overcast